Location: Chambliss
(33.2948°N, 96.4953°W)
Time: 05:41:58
(UTC+00:00)

Daily predictions for brighter satellites

Satellite Brightness Start Highest point End
(mag) Time Altitude Azimuth Time Altitude Azimuth Time Altitude Azimuth
Cosmos 1378 Rocket 3.5 00:00:21 10° N 00:04:40 83° E 00:08:59 10° S
Cosmos 2100 Rocket 4.3 00:02:33 10° S 00:08:47 74° W 00:15:00 10° N
ARIANE 6 FM1 Upper Stage 4.0 00:05:50 10° WSW 00:09:34 35° NW 00:13:15 10° NNE
CZ-2D R/B 2.7 00:08:27 10° SSE 00:11:37 88° WSW 00:14:48 10° NNW
Landsat 7 3.7 00:11:01 10° SSE 00:15:39 83° ENE 00:20:18 10° N
SKYMED 2 3.6 00:12:22 10° NNE 00:16:38 57° E 00:20:54 10° S
Cosmos 1452 Rocket 3.8 00:12:14 10° NNW 00:17:27 72° WSW 00:22:38 10° S
ERS-1 4.5 00:12:26 10° SSE 00:17:36 83° ENE 00:22:46 10° N
CZ-2D R/B 4.1 00:14:13 10° SE 00:17:42 30° ENE 00:21:16 10° N
Helios 1A Rocket 2.7 00:15:25 10° NNE 00:18:40 46° E 00:21:55 10° S
Cosmos 1816 Rocket 4.5 00:13:08 10° N 00:19:26 69° E 00:25:38 10° SSE
SJ-12 4.0 00:16:59 10° S 00:20:47 74° WSW 00:24:35 10° NNW
Cosmos 1908 Rocket 3.5 00:16:43 10° S 00:21:05 86° E 00:25:30 10° N
Cosmos 1300 Rocket 3.7 00:23:30 10° S 00:27:46 52° E 00:32:03 10° NNE
Cosmos 546 4.4 00:24:41 10° NW 00:28:20 64° NE 00:31:18 15° ESE
IRS-P3 4.1 00:24:09 10° SSE 00:29:28 89° ENE 00:34:49 10° NNW
Cosmos 2221 Rocket 3.5 00:25:43 10° N 00:30:12 70° E 00:34:39 10° SSE
COSMO-SKYMED 1 2.5 00:26:19 10° NNE 00:30:23 56° E 00:34:25 10° S
IRAS Rocket 4.4 00:29:16 10° SE 00:34:39 49° ENE 00:40:00 10° N
Cosmos 1943 Rocket 4.0 00:37:08 10° SE 00:38:13 13° ESE 00:38:13 13° ESE
Cosmos 1725 Rocket 4.4 00:34:46 10° SSW 00:40:56 68° W 00:47:11 10° N
ATLAS CENTAUR R/B 1.4 00:39:45 10° SW 00:43:08 59° WNW 00:45:50 16° NNE
USA 281 4.2 00:42:59 22° ENE 00:44:23 24° NE 00:49:22 10° N
H-II Stage 2 3.8 00:23:01 10° WSW 00:44:37 54° S 00:47:38 22° ESE
SPOT 1/Viking Rocket 3.4 00:47:16 10° SSE 00:52:22 81° ENE 00:57:33 10° N
Cosmos 2233 Rocket 4.1 00:47:23 10° S 00:53:37 81° W 00:59:56 10° N
Cosmos 909 Rocket 4.0 00:47:28 10° NNW 00:53:45 84° ENE 01:00:35 10° SSE
MOS 1 Rocket 3.6 00:53:34 10° S 00:57:46 58° W 01:01:58 10° NNW
Cosmos 1833 Rocket 4.0 00:57:17 10° N 01:00:07 21° NE 01:00:07 21° NE
Cosmos 2084 Rocket 3.3 01:01:18 10° SSW 01:05:23 59° ESE 01:05:37 57° E
DMSP B5D1-3 4.4 01:02:08 10° NNE 01:07:14 66° ESE 01:12:17 10° S
Resurs 1-3 3.4 01:03:40 10° SSE 01:07:57 83° ENE 01:12:16 10° N
CZ-4C R/B 4.2 01:06:09 10° W 01:08:45 16° NW 01:11:38 10° N
PSLV R/B 3.3 01:04:51 10° SSE 01:08:57 86° W 01:13:01 10° NNW
Tsikada Rocket 4.0 01:04:08 10° N 01:10:35 86° W 01:16:57 10° S
Geosat 4.0 01:08:04 10° SSE 01:13:03 80° WSW 01:18:03 10° NNW
Cosmos 1140 Rocket 3.4 01:08:47 10° SSW 01:13:59 88° ESE 01:17:06 25° NNE
Tiangong 0.5 01:20:01 10° NW 01:20:56 15° NNW 01:20:56 15° NNW
YAOGAN 1 3.1 01:18:38 10° S 01:22:48 57° W 01:27:00 10° NNW
Aureole 3 Rocket 4.5 01:24:26 10° S 01:26:21 24° S 01:26:21 24° S
Cosmos 1441 Rocket 4.4 01:26:00 10° NNW 01:29:04 35° W 01:30:01 28° SW
Delta 2 Rocket 4.0 01:25:33 10° W 01:28:33 45° WNW 01:28:33 45° WNW
USA 234 4.4 01:37:03 26° SSE 01:37:03 26° SSE 01:40:42 10° S
Timation 2 Rocket 4.0 01:32:14 10° S 01:38:55 67° ESE 01:39:18 66° E
SL-12 R/B(2) 4.0 01:33:01 10° SSW 01:40:32 89° SE 01:45:04 32° NNE
Cosmos 2278 Rocket 3.5 01:35:46 10° S 01:38:23 27° S 01:38:23 27° S
Cosmos 407 Rocket 4.4 01:47:27 10° SSW 01:50:50 41° SSW 01:50:50 41° SSW
NOSS 3-4 (A) 4.2 01:58:03 10° NW 02:05:19 66° WSW 02:08:46 37° S
NOSS 3-4 (C) 4.2 01:58:07 10° NW 02:05:24 67° WSW 02:08:39 39° S
ATLAS 2A CENTAUR R/B 4.4 02:02:55 10° SW 02:07:25 22° SSW 02:07:25 22° SSW
Cosmos 1943 Rocket 4.0 02:17:39 10° SSW 02:19:48 24° SW 02:19:48 24° SW
USA 281 3.9 02:29:53 47° WNW 02:29:53 47° WNW 02:34:51 10° NNW
COSMOS 2428 4.3 09:57:52 24° SE 09:59:49 30° ESE 10:04:43 10° NE
FALCON 9 R/B 4.4 10:04:09 51° SW 10:04:23 51° SW 10:12:24 10° SSE
NOSS 3-1 (C) 4.1 10:33:43 33° NNE 10:33:43 33° NNE 10:36:34 10° NNE
ACS3 Solar Sail 4.0 10:26:19 10° N 10:26:29 11° N 10:26:29 11° N
Cosmos 2237 Rocket 4.3 10:33:23 10° SSE 10:37:53 25° ESE 10:42:24 10° NE
Atlas 2A Centaur Rocket 4.1 10:40:02 25° SSW 10:40:55 26° S 10:44:02 10° ESE
SL-16 R/B 3.6 10:36:02 10° S 10:39:07 30° SSW 10:39:07 30° SSW
Meteor 2-14 Rocket 4.3 10:40:43 10° S 10:46:50 90° E 10:52:57 10° N
Cosmos 1733 Rocket 3.8 10:48:30 42° SSE 10:48:30 42° SSE 10:51:23 10° S
UNK 3.5 10:52:17 10° S 10:56:42 77° WSW 10:56:42 77° WSW
Cosmos 1809 Rocket 4.3 10:51:35 10° SSW 10:57:39 69° W 11:03:44 10° N
Gbstr 26 Del rocket 4.3 10:58:37 32° NNW 10:58:37 32° NNW 11:02:46 10° NNE
Cosmos 2100 Rocket 4.1 11:03:22 10° N 11:09:31 77° E 11:15:41 10° S
NOSS 3-1 (A) 2.6 11:12:09 21° SSW 11:15:08 90° SSW 11:20:13 10° NNE
DELTA 2 R/B (1) 4.0 11:15:11 37° WSW 11:16:37 45° SSW 11:21:53 10° SE
Cosmos 1340 Rocket 2.5 11:17:09 47° NNW 11:18:04 70° W 11:21:46 10° S
Intercosmos 25 Rocket 4.3 11:16:50 30° SW 11:18:46 46° WNW 11:25:14 10° N
Cosmos 1943 Rocket 4.0 11:14:48 10° N 11:19:33 29° ENE 11:24:16 10° ESE
NOSS 0 Rocket 3.8 11:13:40 10° SSW 11:19:48 82° WNW 11:25:58 10° NNE
Cosmos 1703 Rocket 3.4 11:21:46 10° S 11:26:05 82° W 11:30:27 10° N
ISS -1.3 11:31:02 12° SSW 11:31:02 12° SSW 11:31:37 10° SSW
Cosmos 1727 Rocket 4.5 11:24:42 10° SW 11:30:15 35° WNW 11:35:51 10° NNW
CZ-4 R/B 3.7 11:26:22 10° N 11:31:15 83° WNW 11:36:01 10° SSW
Cosmos 1459 Rocket 3.9 11:26:37 10° N 11:32:58 76° W 11:39:15 10° S
Cosmos 921 Rocket 3.2 11:33:17 17° NNW 11:36:29 48° W 11:40:44 10° S
Cosmos 1725 Rocket 4.1 11:35:17 10° N 11:41:38 83° E 11:47:57 10° S
COSMOS 2428 3.4 11:40:03 15° WSW 11:43:55 30° WNW 11:48:54 10° N
Cosmos 1140 Rocket 3.4 11:38:49 10° NNW 11:43:57 90° ENE 11:49:02 10° SSE
Cosmos 44 Rocket 4.0 11:39:57 10° NNW 11:45:00 58° ENE 11:50:04 10° SE
USA 234 3.3 11:39:35 10° SE 11:46:07 72° SW 11:52:39 10° NW
Cosmos 1802 Rocket 4.0 11:41:46 10° N 11:48:06 77° W 11:54:19 10° S
BREEZE-M DEB (TANK) 1.5 11:47:55 14° SW 11:49:59 77° SE 11:52:53 10° ENE
CZ-2C R/B 4.4 11:48:48 10° NW 11:49:27 12° NW 11:49:27 12° NW
Cosmos 1484 Rocket 3.1 11:50:59 10° NNE 11:54:30 60° E 11:57:58 10° S
Cosmos 1782 Rocket 4.1 11:50:33 10° N 11:54:54 62° E 11:59:12 10° SSE
